Weather Roundup
Issued by NWS

Home | Current Version | Previous Version | Text Only | Print | Product List | Glossary On
Versions: 1 2 3 4 5 6 7 8 9 10 11 12 13 14 15 16 17 18 19 20 21 22 23 24 25 26 27 28 29 30 31 32 33 34 35 36 37 38 39 40 41 42 43 44 45 46 47 48 49 50
087
NZUS93 KARX 290810
HRRWXR

CURRENT HOURLY OBSERVATIONS ACROSS
MUCH OF THE UPPER MISSISSIPPI VALLEY
NATIONAL WEATHER SERVICE LA CROSSE WI
300 AM CDT THU SEP 29 2016


...SOUTHEAST MINNESOTA...


CITY           SKY/WX    TMP DP  RH WIND       PRES   REMARKS
ROCHESTER      CLOUDY    51  50  96 N8        30.36R
ROCHESTER/MAYO CLOUDY    51  51 100 N3        30.37R
WINONA         PTCLDY    54  52  94 CALM      30.36R
AUSTIN         PTCLDY    48  46  93 N6        30.35S
ALBERT LEA     CLEAR     48  48 100 N5        30.36S
DODGE CENTER   PTCLDY    46  46 100 N5        30.37R
PRESTON        CLOUDY    50  49  93 N7        30.35R
OWATONNA       CLEAR     46  45  93 NW3       30.37S
FARIBAULT      CLEAR     48  46  93 CALM      30.38S
$$

...ELSEWHERE IN MINNESOTA...


CITY           SKY/WX    TMP DP  RH WIND       PRES   REMARKS
MINNEAPOLIS    CLEAR     49  46  90 N6        30.40R
INTNL FALLS    CLOUDY    52  49  89 CALM      30.46R
DULUTH         CLOUDY    50  49  96 CALM      30.43S
RED WING       CLEAR     46  46 100 CALM      30.36S
REDWOOD FALLS  CLEAR     50  45  83 NE5       30.41R
MANKATO        CLEAR     47  46  97 N5        30.39R
WORTHINGTON    CLEAR     43  42  97 N7        30.41R
FAIRMONT       CLEAR     47  46  97 N7        30.38S
$$

...SOUTHWEST WISCONSIN...


CITY           SKY/WX    TMP DP  RH WIND       PRES   REMARKS
LA CROSSE      CLEAR     54  51  90 N6        30.33R
PRAIRIE DU CHI CLEAR     53  48  82 N5        30.29S
BOSCOBEL       CLEAR     53  50  89 E5        30.30R
LONE ROCK      CLEAR     53  49  86 N8G18     30.28R
PLATTEVILLE    CLEAR     51  51 100 N13       30.25S
FORT MC COY    CLEAR     46  46 100 SE3       30.33S
MAUSTON-NEW LI SUNNY     49  48  97 NW5       30.31R
VIROQUA        FAIR      50  50 100 NE8       30.32R
WIS DELLS      MOCLDY    50  48  95 N6        30.29R
$$

...ELSEWHERE IN WISCONSIN...


CITY           SKY/WX    TMP DP  RH WIND       PRES   REMARKS
MILWAUKEE      MOCLDY    60  56  86 N22G31    30.15S
MADISON        PTCLDY    52  50  93 N14       30.24R
GREEN BAY      CLEAR     52  52 100 N12       30.28R
EAU CLAIRE     CLEAR     50  49  96 N7        30.36R
BLACK RVR FLS  FAIR      49  49 100 N3        30.33S
MEDFORD        CLEAR    N/A N/A N/A N5        30.35R
WAUSAU         CLEAR     49  47  93 N3        30.32S
WIS RAPIDS     CLEAR     51  49  92 NE10      30.33R
MARSHFIELD     CLEAR     50  46  86 NE8       30.32S
RICE LAKE      CLEAR     48  46  95 N3        30.41R
$$

...NORTHEAST IOWA...


CITY           SKY/WX    TMP DP  RH WIND       PRES   REMARKS
WATERLOO       CLEAR     50  48  93 N8        30.30R
DUBUQUE        CLEAR     50  48  93 N8        30.26R
DECORAH        CLEAR     52  52 100 N5        30.31R
MASON CITY     CLEAR     46  46 100 N5        30.36R
CHARLES CITY   CLEAR     50  50 100 N9        30.34R
OELWEIN        CLEAR     50  50 100 NE7       30.30S
$$

...ELSEWHERE IN IOWA...


CITY           SKY/WX    TMP DP  RH WIND       PRES   REMARKS
DES MOINES     CLEAR     54  50  86 N10       30.31R
IOWA CITY      CLEAR     54  49  83 N10       30.26S
FORT DODGE     CLEAR     48  43  81 NW5       30.35S
MARSHALLTOWN   CLEAR     51  50  96 N7        30.30R
CEDAR RAPIDS   CLEAR     51  50  96 N7        30.26R
$$

...NORTHERN ILLINOIS...


CITY           SKY/WX    TMP DP  RH WIND       PRES   REMARKS
CHICAGO-OHARE  CLOUDY    60  55  83 N18G31    30.07S
CHICAGO-MIDWAY CLOUDY    61  56  83 N15       30.05S
MOLINE         CLEAR     54  48  80 N8        30.19S
ROCKFORD       MOCLDY    56  52  86 N16G28    30.18S
PEORIA         CLEAR     54  50  86 N9        30.12R
$$

NOTE: "FAIR" INDICATES FEW OR NO CLOUDS BELOW 12,000 FEET WITH NO
SIGNIFICANT WEATHER AND/OR OBSTRUCTIONS TO VISIBILITY. WIND
SPEEDS ARE IN MILES-PER-HOUR.




USA.gov is the U.S. government's official web portal to all federal, state and local government web resources and services.